[ hide orbit diagram ]
For accurate long-term ephemerides, please instead use our Horizons system.This orbit viewer was implemented using two-body methods, and hence should not be used for determining accurate long-term trajectories (over several years or decades) or planetary encounter circumstances.
Orbital Elements at Epoch 2458258.5 (2018-May-20.0) TDB
Reference: JPL 11 (heliocentric ecliptic J2000)
Element | Value | Uncertainty (1-sigma) | Units |
e | 1.001806557266361 | 4.7958e-06 | |
a | -1083.00607841747 | 2.8741 | au |
q | 1.956512500478245 | 1.8208e-06 | au |
i | 34.45339330967993 | 3.9994e-05 | deg |
node | 91.13971561497642 | 4.5884e-05 | deg |
peri | 134.1384875611278 | 0.00014738 | deg |
M | -.0003656942054815255 | 1.462e-06 | deg |
tp | 2458271.723924047784 (2018-Jun-02.22392405) | 0.00026577 | TDB |
period | n/a n/a | n/a n/a | d yr |
n | 2.765398562182507E-5 | 1.1008e-07 | deg/d |
Q | n/a | n/a | au |
|
| | Orbit Determination Parameters
Additional Information
|
[ show covariance matrix ]
|